Flag for Japan Weather past 2 weeks in Sagamihara, Japan

Now
66 °F

Fog.


Feels Like: 66 °F
Forecast: 67 / 78 °F
Wind: 1 mph from East

Location: Yokota Ab

Current Time: Jul 7, 2015 at 3:10:59 AM

Latest Report: Jul 7, 2015 at 2:00 AM


Visibility: 4 mi

Pressure: 29.95 "Hg

Humidity: 88%

Dew point: 63 °F

Location of SagamiharaLocation

Historic Weather in Sagamihara — Graph

°F

Sagamihara temperature yesterday

Maximum temperature yesterday: 70 °F (at 12:02 PM)
Minimum temperature yesterday: 66 °F (at 3:04 AM)
Average temperature yesterday: 67 °F

Past Weeks' High & Low Weather Summary

 TemperatureHumidityPressure
High85 °F (Jun 28, 12:58 PM)95% (Jun 23, 12:58 AM)29.98 "Hg (Jun 23, 12:58 AM)
Low63 °F (Jun 24, 3:52 AM)37% (Jun 28, 11:58 AM)29.31 "Hg (Jul 1, 1:58 PM)
Average71 °F78%29.76 "Hg
* Reported Jun 22 2:48 AM — Jul 7 2:00 AM, Sagamihara, Weather by CustomWeather, © 2015

Note: Actual official high and low records may vary slightly from our data, if they occured in-between our weather recording intervals... More about our weather records

Advertising

Sagamihara weather history for previous 24 hours

 ConditionsComfort  
Time TempWeatherWind HumidityBarometerVisibility
2:00 AM
Tue, Jul 7
66 °FFog.1 mph88%29.95 "Hg4 mi
1:58 AM66 °FFog.1 mph88%29.95 "Hg4 mi
1:04 AM66 °FFog.No wind88%29.96 "Hg2 mi
12:58 AM66 °FFog.1 mph88%29.95 "Hg2 mi
11:58 PM
Mon, Jul 6
67 °FFog.No wind89%29.96 "Hg4 mi
11:04 PM66 °FFog.2 mph88%29.97 "Hg4 mi
10:58 PM67 °FFog.No wind88%29.97 "Hg4 mi
10:04 PM66 °FFog.No wind94%29.96 "Hg4 mi
10:00 PM66 °FFog.No wind94%29.96 "Hg4 mi
8:58 PM67 °FLow clouds.2 mph86%29.97 "Hg4 mi
8:00 PM68 °FDrizzle. Mostly cloudy.No wind83%29.96 "Hg7 mi
7:58 PM67 °FLight rain. Mostly cloudy.No wind86%29.96 "Hg7 mi
6:58 PM67 °FLight rain. Low clouds.1 mph86%29.95 "Hg5 mi
5:58 PM68 °FLight rain. Mostly cloudy.2 mph83%29.94 "Hg5 mi
5:02 PM68 °FLight rain. Mostly cloudy.2 mph83%29.94 "Hg5 mi
3:58 PM67 °FLight rain. Mostly cloudy.2 mph84%29.94 "Hg5 mi
3:04 PM68 °FLight rain. Mostly cloudy.2 mph83%29.95 "Hg3 mi
2:04 PM68 °FLight rain. Mostly cloudy.2 mph83%29.96 "Hg6 mi
1:58 PM68 °FLight rain. Low clouds.2 mph82%29.95 "Hg5 mi
12:58 PM68 °FLight rain. Low clouds.No wind83%29.95 "Hg4 mi
12:02 PM70 °FLight rain. More clouds than sun.6 mph78%29.96 "Hg9 mi
11:58 AM69 °FLight rain. Overcast.6 mph80%29.96 "Hg9 mi
11:04 AM68 °FLight rain. Low clouds.2 mph78%29.97 "Hg6 mi
9:58 AM68 °FLight rain. Mostly cloudy.2 mph84%29.97 "Hg8 mi
8:58 AM67 °FLight rain. Broken clouds.2 mph85%29.97 "Hg5 mi
7:58 AM67 °FLight rain. Low clouds.3 mph86%29.98 "Hg3 mi
7:00 AM66 °FLight rain. More clouds than sun.3 mph88%29.97 "Hg2 mi
6:58 AM66 °FLight rain. More clouds than sun.5 mph88%29.97 "Hg2 mi
6:04 AM66 °FLight rain. Fog.2 mph88%29.97 "Hg3 mi
6:00 AM66 °FLight rain. Fog.2 mph88%29.97 "Hg2 mi
5:04 AM66 °FDrizzle. Mostly cloudy.3 mph88%29.95 "Hg3 mi
3:58 AM66 °FLight rain. Low clouds.3 mph88%29.95 "Hg4 mi
3:04 AM66 °FLight rain. Passing clouds.2 mph88%29.94 "Hg3 mi
Weather by CustomWeather, © 2015

See weather overviewHow to use our weather pages